Skip Page Navigation
NASA JPL Caltech
NASA Logo - Jet Propulsion Laboratory + View the NASA Portal
+ Near-Earth Object (NEO) Program
Search JPL
JPL Home Earth Solar System Stars & Galaxies Technology
JPL Solar System Dynamics
BODIES ORBITS EPHEMERIDES TOOLS PHYSICAL DATA DISCOVERY FAQ SITE MAP
JPL Small-Body Database Browser
Search: [ help ]  
10916 Okina-Ouna (1997 YB17)
Classification: Main-belt Asteroid          SPK-ID: 2010916
Ephemeris | Orbit Diagram | Orbital Elements | Physical Parameters | Discovery Circumstances ]

[ show orbit diagram ]
Orbital Elements at Epoch 2456400.5 (2013-Apr-18.0) TDB
Reference: JPL 1 (heliocentric ecliptic J2000)
 Element Value Uncertainty (1-sigma)   Units 
e .02295155890906575 5.1104e-08  
a 2.883174331806185 2.7853e-08 AU
q 2.817000986284629 1.5436e-07 AU
i .9414591331519701 5.8225e-06 deg
node 305.9185316701523 0.00032999 deg
peri 322.142882131142 0.00036114 deg
M 259.0885486331278 0.00014408 deg
tp 2456901.736550992957
(2014-Sep-01.23655099)
0.00071723 JED
period 1788.15343465273
4.90
2.5911e-05
7.094e-08
d
yr
n .20132500546292 2.9173e-09 deg/d
Q 2.94934767732774 2.8492e-08 AU
  Orbit Determination Parameters
   # obs. used (total)      1305  
   data-arc span      13343 days (36.53 yr)  
   first obs. used      1976-09-24  
   last obs. used      2013-04-06  
   planetary ephem.      DE405  
   SB-pert. ephem.      SB405-CPV-2  
   condition code      0  
   fit RMS      .52822  
   data source      ORB  
   producer      Otto Matic  
   solution date      2013-Apr-29 13:42:13  

Additional Information
 Earth MOID = 1.80115 AU 
 T_jup = 3.293 
[ show covariance matrix ]

Ephemeris | Orbit Diagram | Orbital Elements | Physical Parameters | Discovery Circumstances ]

Physical Parameter Table
Parameter Symbol Value Units Sigma Reference Notes
absolute magnitude H 13.1 mag n/a PDS3 (MPC 34801)  

10916 Okina-Ouna           Discovered 1997 Dec. 31 by N. Sato at Chichibu.
Okina and Ouna are the two small lunar explorers developed by the Japan Aerospace Exploration Agency. They were separated from the main orbiter of the lunar explorer "KAGUYA (SELENE)" in Oct. 2007. Okina and Ouna are also the foster parents of Kaguya in the old Japanese story Kaguya-hime.
NOTE: some special characters may not display properly (any characters within {} are an attempt to place the proper accent above a character)
Reference: 20090607/MPCPages.arcLast Updated: 2009-06-08

Alternate Designations
 1997 YB17 = 1976 SE2 = 1996 UG5 
Ephemeris | Orbit Diagram | Orbital Elements | Physical Parameters | Discovery Circumstances ]
ABOUT SSD CREDITS/AWARDS PRIVACY/COPYRIGHT GLOSSARY LINKS
FirstGov 2013-May-23 07:04 UT
(server date/time)  
NASA Home Page
Site Manager:   Donald K. Yeomans
Webmaster  Alan B. Chamberlin